Home   Weather   Kuujjuaq   Past weeks
Flag for Canada

Past Weather in Kuujjuaq, Quebec, Canada — Yesterday and Last 2 Weeks

Now
-26 °F

Snow flurries. Passing clouds.


Feels Like: -48 °F
Forecast: -22 / -29 °F
Wind: 10 mph from Southwest

Location: Kuujjuaq

Current Time: Jan 21, 2019 at 1:01:15 am

Latest Report: Jan 21, 2019 at 12:00 am


Visibility: 15 mi

Pressure: 30.27 "Hg

Humidity: 67%

Dew Point: -33 °F

Location of KuujjuaqLocation

Past Weather in Kuujjuaq — Graph

°F

Kuujjuaq Temperature Yesterday

Maximum temperature yesterday: -17 °F (at 11:00 am)
Minimum temperature yesterday: -26 °F (at 9:00 pm)
Average temperature yesterday: -21 °F

High & Low Weather Summary for the Past Weeks

 TemperatureHumidityPressure
High21 °F (Jan 11, 12:15 pm)93% (Jan 11, 8:00 am)30.36 "Hg (Jan 11, 8:00 am)
Low-35 °F (Jan 18, 8:00 am)55% (Jan 18, 1:00 pm)29.56 "Hg (Jan 14, 12:00 pm)
Average-8 °F74%30.00 "Hg
* Reported Jan 5 11:00 pm — Jan 20 11:10 pm, Kuujjuaq. Weather by CustomWeather, © 2019

Note: Actual official high and low records may vary slightly from our data, if they occured in-between our weather recording intervals... More about our weather records

Advertising

Kuujjuaq Weather History for the Previous 24 Hours

Scroll right to see more
 ConditionsComfort  
Time TempWeatherWind HumidityBarometerVisibility
11:10 pm
Sun, Jan 20
-26 °FSnow flurries. Passing clouds.13 mph67%30.29 "Hg15 mi
11:00 pm-26 °FPassing clouds.10 mph67%30.29 "Hg15 mi
10:00 pm-26 °FClear.9 mph67%30.28 "Hg15 mi
9:00 pm-26 °FClear.8 mph67%30.28 "Hg15 mi
8:00 pm-24 °FClear.8 mph68%30.29 "Hg15 mi
7:00 pm-24 °FClear.9 mph68%30.28 "Hg15 mi
6:00 pm-22 °FClear.12 mph62%30.28 "Hg15 mi
5:38 pm-22 °FClear.12 mph62%30.28 "Hg15 mi
5:00 pm-20 °FSnow flurries. Passing clouds.16 mph62%30.26 "Hg15 mi
4:00 pm-20 °FSnow flurries. Low level haze.16 mph62%30.25 "Hg15 mi
3:00 pm-18 °FSunny.15 mph62%30.25 "Hg15 mi
2:00 pm-17 °FSnow flurries. Low level haze.14 mph57%30.24 "Hg15 mi
1:00 pm-17 °FSnow flurries. Low level haze.12 mph57%30.23 "Hg15 mi
12:00 pm-17 °FSnow flurries. Low level haze.15 mph57%30.23 "Hg15 mi
11:41 am-17 °FScattered clouds.14 mph57%30.22 "Hg15 mi
11:00 am-17 °FSnow flurries. Scattered clouds.9 mph57%30.22 "Hg15 mi
10:00 am-18 °FSnow flurries. Broken clouds.15 mph62%30.22 "Hg15 mi
9:00 am-18 °FSnow flurries. Cloudy.16 mph69%30.21 "Hg12 mi
8:00 am-18 °FSnow flurries. Broken clouds.12 mph62%30.19 "Hg12 mi
7:00 am-20 °FSnow flurries. Partly cloudy.13 mph68%30.16 "Hg12 mi
6:00 am-20 °FSnow flurries. Partly cloudy.13 mph75%30.15 "Hg8 mi
5:00 am-20 °FSnow flurries. Partly cloudy.14 mph68%30.14 "Hg10 mi
4:00 am-20 °FSnow flurries. Partly cloudy.10 mph68%30.12 "Hg12 mi
3:00 am-22 °FSnow flurries. Partly cloudy.12 mph68%30.10 "Hg15 mi
2:00 am-22 °FSnow flurries. Partly cloudy.12 mph68%30.08 "Hg15 mi
1:00 am-20 °FSnow flurries. Partly cloudy.15 mph68%30.07 "Hg12 mi
Weather by CustomWeather, © 2019

See weather overview

LIVE TOTAL LUNAR ECLIPSE – Watch the eclipse as it happens